Flight Track Log - Related Links

Times and Time Zones

All times are in EDT time to prevent confusion due to time zone crossing. See the SWA3497 flight status page for this flight to view local times or setup timezone preferences in your user account.

Time Position Orientation Groundspeed Altitude Reporting Facility
EDT Latitude Longitude Course Direction KTS MPH feet Rate Location/Type
Wed 04:50:54 PM 39.1500 -76.6500 142° Southeast 166 191 1,800  Level Potomac TRACON
Wed 04:51:54 PM 39.1000 -76.6000 142° Southeast 235 270 4,600 2,952 Climbing Potomac TRACON
Wed 04:54:03 PM 39.1150 -76.4022 84° East 294 338 11,100 3,016 Climbing Washington Center
Wed 04:55:03 PM 39.1386 -76.2714 77° East 312 359 14,100 3,100 Climbing Washington Center
Wed 04:56:03 PM 39.1600 -76.1511 77° East 347 399 17,300 3,100 Climbing Washington Center
Wed 04:57:03 PM 39.1772 -76.0147 81° East 372 428 20,300 2,900 Climbing Washington Center
Wed 04:58:03 PM 39.1986 -75.8756 79° East 382 440 23,100 2,600 Climbing Washington Center
Wed 04:59:03 PM 39.2717 -75.7767 46° Northeast 371 427 25,500 2,200 Climbing Washington Center
Wed 05:00:03 PM 39.3531 -75.6694 46° Northeast 384 442 27,500 1,750 Climbing Washington Center
Wed 05:01:03 PM 39.4364 -75.5672 43° Northeast 398 458 29,000 750 Climbing Washington Center
Wed 05:02:03 PM 39.5156 -75.4625 46° Northeast 403 464 29,000  Level Washington Center
Wed 05:04:12 PM 39.6958 -75.2253 45° Northeast 417 480 29,000  Level New York Center
Wed 05:05:10 PM 39.7667 -75.1189 49° Northeast 412 474 29,000  Level New York Center
Wed 05:06:10 PM 39.8456 -75.0078 47° Northeast 412 474 29,000  Level New York Center
Wed 05:07:11 PM 39.9225 -74.9014 47° Northeast 412 474 29,000  Level New York Center
Wed 05:08:12 PM 40.0058 -74.7761 49° Northeast 414 476 29,000  Level New York Center
Wed 05:09:10 PM 40.0781 -74.6744 47° Northeast 414 476 29,000  Level New York Center
Wed 05:10:10 PM 40.1633 -74.5517 48° Northeast 414 476 29,000  Level New York Center
Wed 05:11:11 PM 40.2372 -74.4578 44° Northeast 414 476 29,000 -198 Level New York Center
Wed 05:12:11 PM 40.3256 -74.3644 39° Northeast 403 464 28,600 -645 Descending New York Center
Wed 05:13:12 PM 40.4053 -74.2761 40° Northeast 403 464 27,700 -1,059 Descending New York Center
Wed 05:14:10 PM 40.5108 -74.1642 39° Northeast 408 470 26,500 -1,019 Descending New York Center
Wed 05:15:51 PM 40.6514 -74.0183 38° Northeast 431 496 25,000 -932 Descending Boston Center
Wed 05:16:51 PM 40.7358 -73.9272 39° Northeast 418 481 24,000 -508 Descending Boston Center
Wed 05:17:49 PM 40.8183 -73.8333 41° Northeast 402 463 24,000  Level Boston Center
Wed 05:18:50 PM 40.9031 -73.7308 42° Northeast 392 451 24,000 -344 Level Boston Center
Wed 05:19:51 PM 40.9917 -73.6142 45° Northeast 397 457 23,300 -541 Descending Boston Center
Wed 05:20:52 PM 41.0717 -73.5414 34° Northeast 397 457 22,900 -763 Descending Boston Center
Wed 05:21:49 PM 41.1717 -73.5347 North 356 410 21,800 -1,068 Descending Boston Center
Wed 05:22:50 PM 41.2697 -73.5336 360° North 351 404 20,800 -984 Descending Boston Center
Wed 05:23:51 PM 41.3678 -73.5325 360° North 351 404 19,800 -1,059 Descending Boston Center
Wed 05:24:49 PM 41.4761 -73.5317 360° North 351 404 18,700 -1,008 Descending Boston Center
Wed 05:25:50 PM 41.5636 -73.5306 North 346 398 17,800 -787 Descending Boston Center
Wed 05:26:51 PM 41.6700 -73.5294 360° North 346 398 17,100 -787 Descending Boston Center
Wed 05:27:52 PM 41.7533 -73.5308 359° North 346 398 16,200 -1,017 Descending Boston Center
Wed 05:28:49 PM 41.8553 -73.5300 360° North 340 391 15,100 -1,385 Descending Boston Center
Wed 05:29:49 PM 41.9408 -73.5286 North 335 386 13,500 -1,757 Descending Boston Center
Wed 05:31:09 PM 42.0658 -73.5281 360° North 330 380 11,000 -1,230 Descending Boston Center
Wed 05:31:51 PM 42.1283 -73.5233 North 317 365 11,000 -59 Level Boston Center
Wed 05:32:51 PM 42.2014 -73.5358 353° North 309 356 10,900 -783 Descending Boston Center
Wed 05:33:46 PM 42.2739 -73.5792 336° Northwest 271 312 9,500 -1,448 Descending Boston Center
Wed 05:34:47 PM 42.3381 -73.6225 333° Northwest 260 299 8,100 -1,500 Descending Boston Center
Wed 05:35:54 PM 42.4039 -73.6856 325° Northwest 250 288 6,300 -1,672 Descending Boston Center
Wed 05:36:49 PM 42.4597 -73.7317 329° Northwest 260 299 4,700 -1,617 Descending Boston Center
Wed 05:37:49 PM 42.5303 -73.7531 347° North 258 297 3,200 -898 Descending Boston Center
Wed 05:38:56 PM 42.6008 -73.7856 341° North 247 284 2,800 -331 Descending Boston Center
Wed 05:39:56 PM 42.6444 -73.8061 341° North 145 167 2,500 -694 Descending Boston Center
Wed 05:40:57 PM 42.6819 -73.8042 North 122 140 1,400 -934 Descending Boston Center
Wed 05:41:58 PM 42.7236 -73.8081 356° North 135 155 600 -787 Descending Boston Center
Wed 05:43:00 PM 42.7333 -73.8000 350° North  Level FlightAware Approximate

Login

Don't have an account? Register now (free) for customized features, flight alerts, and more!